sat.trackr.live / text

‹ back to catalog

SHIYAN-30 03

NORAD 68139 · 2026-048A

PAYLOAD ACTIVE UNKNOWN

§ Identity

Operator
Country
PRC
Launch date
2026-03-12
Launch site
XICLF
Launch vehicle
Mass (kg)
RCS (m²)

External: N2YO · Heavens-Above · Gunter

§ Orbital elements

Epoch: 2026-09-19T22:07:05.326752Z

Period
96.52 min
Inclination
34.9998°
Eccentricity
0.0003742
Mean motion
14.91947323 rev/d
Perigee alt
589.3 km
Apogee alt
594.5 km
Semi-major
6,970.0 km
B*
1.1122e-4
RAAN
60.1670°
Arg perigee
74.0225°
Mean anomaly
286.0892°
Rev number
2,852

§ Raw data

SHIYAN-30 031 68139U 26048A   26262.92158943  .00001120  00000+0  11122-3 0  99992 68139  34.9998  60.1670 0003742  74.0225 286.0892 14.91947323 28522

JSON: /api/v1/satellites/68139 · /tle

For live sub-satellite position, see the globe view (requires WebGL).

§ Visibility from observer

Set your observer location to see the next 7 days of passes ≥ 10°. The values pass through the URL so the page stays shareable.

No JS? Fill the form by hand. The geolocation button needs JavaScript.